H1 CPF 2 NER 2022 7 22 9 203 01 glonass140 H2 1903001 9140 44299 2022 7 22 0 0 0 2022 7 25 23 45 0 900 1 1 0 0 0 1 H9 10 0 59782 0.00000 0 15257758.047 -7699373.809 18962445.023 10 0 59782 900.00000 0 14007417.718 -5610043.823 20594040.353 10 0 59782 1800.00000 0 12836314.058 -3276888.158 21826713.722 10 0 59782 2700.00000 0 11791049.951 -748621.213 22636719.697 10 0 59782 3600.00000 0 10909341.956 1917587.589 23008481.042 10 0 59782 4500.00000 0 10218484.377 4658237.696 22934878.407 10 0 59782 5400.00000 0 9734267.103 7405885.770 22417380.404 10 0 59782 6300.00000 0 9460391.082 10091701.233 21466012.251 10 0 59782 7200.00000 0 9388404.824 12648084.995 20099163.771 10 0 59782 8100.00000 0 9498164.024 15011244.872 18343240.151 10 0 59782 9000.00000 0 9758794.982 17123622.819 16232161.407 10 0 59782 9900.00000 0 10130121.838 18936074.761 13806719.133 10 0 59782 10800.00000 0 10564498.425 20409713.729 11113801.552 10 0 59782 11700.00000 0 11008968.691 21517340.353 8205500.382 10 0 59782 12600.00000 0 11407665.702 22244401.354 5138115.428 10 0 59782 13500.00000 0 11704348.912 22589435.896 1971074.934 10 0 59782 14400.00000 0 11844973.085 22563990.678 -1234208.376 10 0 59782 15300.00000 0 11780180.419 22192006.584 -4415523.894 10 0 59782 16200.00000 0 11467610.048 21508701.905 -7511069.606 10 0 59782 17100.00000 0 10873926.226 20558998.232 -10460654.951 10 0 59782 18000.00000 0 9976477.973 19395554.646 -13206876.197 10 0 59782 18900.00000 0 8764518.072 18076492.513 -15696240.880 10 0 59782 19800.00000 0 7239927.678 16662906.505 -17880218.686 10 0 59782 20700.00000 0 5417413.607 15216266.822 -19716197.386 10 0 59782 21600.00000 0 3324167.548 13795822.330 -21168324.403 10 0 59782 22500.00000 0 998999.221 12456114.497 -22208216.769 10 0 59782 23400.00000 0 -1509022.082 11244707.416 -22815524.879 10 0 59782 24300.00000 0 -4142362.284 10200230.114 -22978338.361 10 0 59782 25200.00000 0 -6837179.722 9350814.052 -22693425.594 10 0 59782 26100.00000 0 -9525755.235 8712992.028 -21966301.688 10 0 59782 27000.00000 0 -12139093.960 8291104.887 -20811123.259 10 0 59782 27900.00000 0 -14609590.166 8077240.895 -19250411.791 10 0 59782 28800.00000 0 -16873643.538 8051709.786 -17314610.942 10 0 59782 29700.00000 0 -18874117.290 8184030.619 -15041486.554 10 0 59782 30600.00000 0 -20562535.154 8434390.565 -12475381.406 10 0 59782 31500.00000 0 -21900925.188 8755511.574 -9666339.924 10 0 59782 32400.00000 0 -22863233.553 9094844.369 -6669120.708 10 0 59782 33300.00000 0 -23436249.701 9396995.313 -3542117.174 10 0 59782 34200.00000 0 -23620005.270 9606281.849 -346208.602 10 0 59782 35100.00000 0 -23427631.556 9669306.897 2856434.876 10 0 59782 36000.00000 0 -22884683.394 9537442.168 6003568.951 10 0 59782 36900.00000 0 -22027959.937 9169114.573 9034088.824 10 0 59782 37800.00000 0 -20903873.922 8531798.704 11889215.740 10 0 59782 38700.00000 0 -19566439.767 7603631.261 14513633.208 10 0 59782 39600.00000 0 -18074966.423 6374579.619 16856551.018 10 0 59782 40500.00000 0 -16491552.680 4847115.782 18872677.254 10 0 59782 41400.00000 0 -14878490.164 3036367.762 20523080.632 10 0 59782 42300.00000 0 -13295682.424 969742.357 21775927.863 10 0 59782 43200.00000 0 -11798187.091 -1313965.043 22607083.455 10 0 59782 44100.00000 0 -10433982.342 -3765936.919 23000561.961 10 0 59782 45000.00000 0 -9242049.253 -6329120.301 22948825.374 10 0 59782 45900.00000 0 -8250848.192 -8940360.737 22452921.070 10 0 59782 46800.00000 0 -7477251.073 -11532796.602 21522458.338 10 0 59782 47700.00000 0 -6925972.571 -14038416.231 20175424.174 10 0 59782 48600.00000 0 -6589522.941 -16390673.789 18437841.602 10 0 59782 49500.00000 0 -6448683.770 -18527057.268 16343276.355 10 0 59782 50400.00000 0 -6473486.617 -20391503.532 13932200.358 10 0 59782 51300.00000 0 -6624653.769 -21936561.370 11251222.939 10 0 59782 52200.00000 0 -6855441.168 -23125213.387 8352203.123 10 0 59782 53100.00000 0 -7113806.731 -23932281.019 5291258.847 10 0 59782 54000.00000 0 -7344813.415 -24345353.988 2127690.994 10 0 59782 54900.00000 0 -7493166.158 -24365204.725 -1077157.905 10 0 59782 55800.00000 0 -7505775.728 -24005669.595 -4261088.685 10 0 59782 56700.00000 0 -7334240.853 -23293000.900 -7362251.605 10 0 59782 57600.00000 0 -6937142.877 -22264715.843 -10320349.920 10 0 59782 58500.00000 0 -6282054.674 -20967989.885 -13077817.134 10 0 59782 59400.00000 0 -5347177.130 -19457661.283 -15580944.444 10 0 59782 60300.00000 0 -4122532.001 -17793930.222 -17780935.696 10 0 59782 61200.00000 0 -2610658.456 -16039849.117 -19634868.393 10 0 59782 62100.00000 0 -826781.573 -14258709.633 -21106541.247 10 0 59782 63000.00000 0 1201556.748 -12511436.524 -22167190.921 10 0 59782 63900.00000 0 3435391.029 -10854098.272 -22796063.205 10 0 59782 64800.00000 0 5825714.029 -9335639.557 -22980826.872 10 0 59782 65700.00000 0 8315290.689 -7995931.228 -22717821.501 10 0 59782 66600.00000 0 10840829.180 -6864220.018 -22012133.972 10 0 59782 67500.00000 0 13335418.824 -5958043.198 -20877501.754 10 0 59782 68400.00000 0 15731133.073 -5282653.509 -19336044.612 10 0 59782 69300.00000 0 17961688.452 -4830978.024 -17417829.899 10 0 59782 70200.00000 0 19965047.905 -4584111.687 -15160280.050 10 0 59782 71100.00000 0 21685859.205 -4512323.389 -12607434.138 10 0 59782 72000.00000 0 23077625.893 -4576530.565 -9809078.567 10 0 59782 72900.00000 0 24104519.772 -4730178.188 -6819764.674 10 0 59782 73800.00000 0 24742759.159 -4921440.799 -3697733.383 10 0 59782 74700.00000 0 24981495.737 -5095652.563 -503769.164 10 0 59782 75600.00000 0 24823173.889 -5197860.754 2699993.252 10 0 59782 76500.00000 0 24283348.888 -5175393.150 5851285.028 10 0 59782 77400.00000 0 23389973.337 -4980329.641 8888917.607 10 0 59782 78300.00000 0 22182183.671 -4571772.841 11753971.130 10 0 59782 79200.00000 0 20708639.428 -3917821.532 14390933.645 10 0 59782 80100.00000 0 19025486.457 -2997163.787 16748769.192 10 0 59782 81000.00000 0 17194030.493 -1800222.989 18781894.783 10 0 59782 81900.00000 0 15278218.927 -329808.955 20451048.548 10 0 59782 82800.00000 0 13342035.996 1398752.755 21724033.582 10 0 59782 83700.00000 0 11446919.390 3358018.655 22576324.765 10 0 59782 84600.00000 0 9649304.735 5509335.915 22991528.462 10 0 59782 85500.00000 0 7998398.661 7804224.362 22961687.630 10 0 59783 0.00000 0 6534271.387 10186175.264 22487427.709 10 0 59783 900.00000 0 5286345.546 12592794.853 21577940.847 10 0 59783 1800.00000 0 4272344.334 14958201.973 20250809.764 10 0 59783 2700.00000 0 3497738.687 17215586.468 18531673.544 10 0 59783 3600.00000 0 2955717.440 19299820.717 16453741.593 10 0 59783 4500.00000 0 2627680.305 21150018.674 14057163.904 10 0 59783 5400.00000 0 2484232.934 22711937.146 11388268.463 10 0 59783 6300.00000 0 2486642.547 23940120.232 8498679.016 10 0 59783 7200.00000 0 2588693.421 24799697.830 5444328.933 10 0 59783 8100.00000 0 2738864.691 25267763.049 2284388.969 10 0 59783 9000.00000 0 2882739.124 25334270.362 -919871.319 10 0 59783 9900.00000 0 2965541.485 25002415.912 -4106266.958 10 0 59783 10800.00000 0 2934699.128 24288482.896 -7212903.099 10 0 59783 11700.00000 0 2742316.041 23221157.207 -10179379.269 10 0 59783 12600.00000 0 2347454.722 21840340.828 -12947968.428 10 0 59783 13500.00000 0 1718127.977 20195511.716 -15464747.412 10 0 59783 14400.00000 0 832914.572 18343698.189 -17680655.939 10 0 59783 15300.00000 0 -317871.563 16347152.330 -19552462.722 10 0 59783 16200.00000 0 -1731510.239 14270819.814 -21043619.006 10 0 59783 17100.00000 0 -3392732.628 12179712.293 -22124982.109 10 0 59783 18000.00000 0 -5274115.767 10136292.843 -22775394.043 10 0 59783 18900.00000 0 -7336999.356 8197984.390 -22982103.286 10 0 59783 19800.00000 0 -9532888.007 6414905.905 -22741020.900 10 0 59783 20700.00000 0 -11805281.269 4827931.582 -22056805.468 10 0 59783 21600.00000 0 -14091855.535 3467154.409 -20942774.856 10 0 59783 22500.00000 0 -16326906.732 2350818.349 -19420646.232 10 0 59783 23400.00000 0 -18443951.372 1484763.437 -17520109.369 10 0 59783 24300.00000 0 -20378376.644 862406.137 -15278241.642 10 0 59783 25200.00000 0 -22070028.022 465254.419 -12738776.461 10 0 59783 26100.00000 0 -23465625.268 263934.225 -9951240.024 10 0 59783 27000.00000 0 -24520905.130 219682.056 -6969974.050 10 0 59783 27900.00000 0 -25202400.628 286238.537 -3853064.513 10 0 59783 28800.00000 0 -25488782.410 412060.818 -661198.528 10 0 59783 29700.00000 0 -25371706.449 542758.217 2543527.179 10 0 59783 30600.00000 0 -24856133.514 623646.250 5698821.909 10 0 59783 31500.00000 0 -23960108.315 602309.637 8743416.037 10 0 59783 32400.00000 0 -22714009.190 431064.873 11618251.289 10 0 59783 33300.00000 0 -21159301.408 69217.801 14267622.908 10 0 59783 34200.00000 0 -19346847.784 -514979.191 16640251.708 10 0 59783 35100.00000 0 -17334848.523 -1342752.602 18690265.987 10 0 59783 36000.00000 0 -15186497.009 -2423681.711 20378075.368 10 0 59783 36900.00000 0 -12967449.597 -3755067.718 21671121.080 10 0 59783 37800.00000 0 -10743214.335 -5321824.239 22544489.757 10 0 59783 38700.00000 0 -8576566.276 -7096893.686 22981380.551 10 0 59783 39600.00000 0 -6525095.401 -9042172.408 22973417.969 10 0 59783 40500.00000 0 -4638987.195 -11109906.771 22520805.582 10 0 59783 41400.00000 0 -2959126.070 -13244503.220 21632318.394 10 0 59783 42300.00000 0 -1515598.555 -15384678.426 20325134.283 10 0 59783 43200.00000 0 -326656.688 -17465861.860 18624507.532 10 0 59783 44100.00000 0 601816.684 -19422752.650 16563290.034 10 0 59783 45000.00000 0 1276319.362 -21191925.929 14181308.349 10 0 59783 45900.00000 0 1715218.169 -22714381.623 11524607.312 10 0 59783 46800.00000 0 1947735.808 -23937930.400 8644573.314 10 0 59783 47700.00000 0 2012478.516 -24819317.704 5596952.846 10 0 59783 48600.00000 0 1955566.061 -25325997.102 2440784.033 10 0 59783 49500.00000 0 1828442.405 -25437478.220 -762739.202 10 0 59783 50400.00000 0 1685459.045 -25146191.787 -3951448.840 10 0 59783 51300.00000 0 1581333.020 -24457834.242 -7063407.796 10 0 59783 52200.00000 0 1568587.323 -23391175.931 -10038114.778 10 0 59783 53100.00000 0 1695082.613 -21977339.372 -12817685.164 10 0 59783 54000.00000 0 2001745.762 -20258576.484 -15347984.331 10 0 59783 54900.00000 0 2520592.794 -18286594.782 -17579690.692 10 0 59783 55800.00000 0 3273131.569 -16120501.864 -19469266.781 10 0 59783 56700.00000 0 4269213.749 -13824453.717 -20979818.721 10 0 59783 57600.00000 0 5506386.605 -11465105.047 -22081826.462 10 0 59783 58500.00000 0 6969774.099 -9108968.426 -22753729.780 10 0 59783 59400.00000 0 8632494.186 -6819792.932 -22982357.953 10 0 59783 60300.00000 0 10456596.520 -4656072.179 -22763194.140 10 0 59783 61200.00000 0 12394482.405 -2668786.332 -22100468.786 10 0 59783 62100.00000 0 14390748.286 -899472.656 -21007079.867 10 0 59783 63000.00000 0 16384375.903 621294.774 -19504341.241 10 0 59783 63900.00000 0 18311177.138 1874952.860 -17621563.954 10 0 59783 64800.00000 0 20106390.685 2855481.728 -15395478.742 10 0 59783 65700.00000 0 21707320.985 3569400.312 -12869511.327 10 0 59783 66600.00000 0 23055907.876 4035227.055 -10092925.238 10 0 59783 67500.00000 0 24101118.400 4282430.446 -7119849.692 10 0 59783 68400.00000 0 24801059.727 4349915.827 -4008212.478 10 0 59783 69300.00000 0 25124724.209 4284114.633 -818599.867 10 0 59783 70200.00000 0 25053293.330 4136759.079 2386933.046 10 0 59783 71100.00000 0 24580946.342 3962438.415 5546077.319 10 0 59783 72000.00000 0 23715140.494 3816041.797 8597485.768 10 0 59783 72900.00000 0 22476352.321 3750197.198 11481964.975 10 0 59783 73800.00000 0 20897292.157 3812815.351 14143620.331 10 0 59783 74700.00000 0 19021626.113 4044842.715 16530932.023 10 0 59783 75600.00000 0 16902260.099 4478318.087 18597741.817 10 0 59783 76500.00000 0 14599258.281 5134814.257 20304132.634 10 0 59783 77400.00000 0 12177483.095 6024329.571 21617185.228 10 0 59783 78300.00000 0 9704054.766 7144675.361 22511598.971 10 0 59783 79200.00000 0 7245735.092 8481384.489 22970166.385 10 0 59783 80100.00000 0 4866342.836 10008144.728 22984093.669 10 0 59783 81000.00000 0 2624306.251 11687739.221 22553162.301 10 0 59783 81900.00000 0 570452.212 13473455.579 21685729.319 10 0 59783 82800.00000 0 -1253878.239 15310906.005 20398566.605 10 0 59783 83700.00000 0 -2818311.720 17140184.116 18716542.059 10 0 59783 84600.00000 0 -4104461.779 18898270.274 16672148.105 10 0 59783 85500.00000 0 -5106444.446 20521586.745 14304885.615 10 0 59784 0.00000 0 -5830869.443 21948597.514 11660514.039 10 0 59784 900.00000 0 -6296308.203 23122346.069 8790179.268 10 0 59784 1800.00000 0 -6532260.102 23992823.855 5749438.375 10 0 59784 2700.00000 0 -6577661.453 24519073.026 2597194.011 10 0 59784 3600.00000 0 -6478998.531 24670933.003 -605438.377 10 0 59784 4500.00000 0 -6288104.260 24430357.499 -3796310.551 10 0 59784 5400.00000 0 -6059731.255 23792245.261 -6913445.904 10 0 59784 6300.00000 0 -5849003.771 22764748.005 -9896244.913 10 0 59784 7200.00000 0 -5708856.718 21369040.844 -12686667.743 10 0 59784 8100.00000 0 -5687570.766 19638563.056 -15230370.470 10 0 59784 9000.00000 0 -5826508.993 17617759.395 -17477772.093 10 0 59784 9900.00000 0 -6158152.187 15360373.385 -19385030.621 10 0 59784 10800.00000 0 -6704517.594 12927363.030 -20914908.460 10 0 59784 11700.00000 0 -7476029.720 10384525.485 -22037509.368 10 0 59784 12600.00000 0 -8470892.740 7799929.737 -22730871.833 10 0 59784 13500.00000 0 -9674992.767 5241264.551 -22981406.624 10 0 59784 14400.00000 0 -11062335.719 2773212.533 -22784169.407 10 0 59784 15300.00000 0 -12596003.623 454960.325 -22142962.560 10 0 59784 16200.00000 0 -14229590.070 -1662050.955 -21070263.865 10 0 59784 17100.00000 0 -15909054.996 -3536041.037 -19586983.169 10 0 59784 18000.00000 0 -17574920.854 -5136391.669 -17722051.676 10 0 59784 18900.00000 0 -19164717.583 -6444671.457 -15511851.998 10 0 59784 19800.00000 0 -20615572.998 -7455142.488 -12999500.340 10 0 59784 20700.00000 0 -21866838.813 -8174728.838 -10233995.464 10 0 59784 21600.00000 0 -22862641.003 -8622450.198 -7269251.784 10 0 59784 22500.00000 0 -23554246.402 -8828346.623 -4163036.422 10 0 59784 23400.00000 0 -23902145.364 -8831942.024 -975832.205 10 0 59784 24300.00000 0 -23877762.586 -8680313.684 2230350.124 10 0 59784 25200.00000 0 -23464724.235 -8425851.586 5393186.187 10 0 59784 26100.00000 0 -22659628.583 -8123804.206 8451254.105 10 0 59784 27000.00000 0 -21472288.593 -7829716.071 11345228.193 10 0 59784 27900.00000 0 -19925437.279 -7596866.400 14019026.828 10 0 59784 28800.00000 0 -18053909.304 -7473817.470 16420892.278 10 0 59784 29700.00000 0 -15903334.037 -7502176.106 18504382.287 10 0 59784 30600.00000 0 -13528395.356 -7714662.205 20229255.280 10 0 59784 31500.00000 0 -10990731.116 -8133564.765 21562233.389 10 0 59784 32400.00000 0 -8356559.500 -8769649.499 22477630.174 10 0 59784 33300.00000 0 -5694130.162 -9621563.060 22957832.544 10 0 59784 34200.00000 0 -3071104.780 -10675758.326 22993628.997 10 0 59784 35100.00000 0 -551973.967 -11906943.713 22584379.119 10 0 59784 36000.00000 0 1804384.372 -13279038.070 21738021.814 10 0 59784 36900.00000 0 3946906.022 -14746591.998 20470922.461 10 0 59784 37800.00000 0 5834211.595 -16256617.429 18807561.737 10 0 59784 38700.00000 0 7436071.977 -17750750.516 16780071.455 10 0 59784 39600.00000 0 8734408.621 -19167659.020 14427625.330 10 0 59784 40500.00000 0 9723788.165 -20445595.081 11795695.140 10 0 59784 41400.00000 0 10411391.410 -21524987.877 8935185.144 10 0 59784 42300.00000 0 10816458.174 -22350968.421 5901460.152 10 0 59784 43200.00000 0 10969231.251 -22875721.069 2753284.732 10 0 59784 44100.00000 0 10909443.551 -23060562.870 -448306.951 10 0 59784 45000.00000 0 10684411.684 -22877662.687 -3641189.336 10 0 59784 45900.00000 0 10346816.061 -22311326.577 -6763349.270 10 0 59784 46800.00000 0 9952261.043 -21358793.754 -9754091.956 10 0 59784 47700.00000 0 9556718.342 -20030507.749 -12555225.265 10 0 59784 48600.00000 0 9213962.214 -18349849.347 -15112198.798 10 0 59784 49500.00000 0 8973105.663 -16352340.494 -17375174.808 10 0 59784 50400.00000 0 8876342.944 -14084350.837 -19300009.251 10 0 59784 51300.00000 0 8956995.127 -11601359.558 -20849123.003 10 0 59784 52200.00000 0 9237942.846 -8965844.122 -21992245.485 10 0 59784 53100.00000 0 9730513.966 -6244883.523 -22707015.353 10 0 59784 54000.00000 0 10433874.693 -3507575.737 -22979425.902 10 0 59784 54900.00000 0 11334951.198 -822377.060 -22804105.905 10 0 59784 55800.00000 0 12408886.236 1745525.459 -22184429.849 10 0 59784 56700.00000 0 13620012.376 4136698.735 -21132455.093 10 0 59784 57600.00000 0 14923301.334 6299701.702 -19668686.835 10 0 59784 58500.00000 0 16266228.465 8192983.246 -17821675.420 10 0 59784 59400.00000 0 17590973.566 9786361.064 -15627453.921 10 0 59784 60300.00000 0 18836864.717 11062020.321 -13128827.221 10 0 59784 61200.00000 0 19942961.284 12014991.369 -10374527.107 10 0 59784 62100.00000 0 20850666.259 12653088.085 -7418250.590 10 0 59784 63000.00000 0 21506256.869 12996311.444 -4317601.210 10 0 59784 63900.00000 0 21863225.910 13075745.633 -1132955.150 10 0 59784 64800.00000 0 21884334.575 12931995.672 2073724.545 10 0 59784 65700.00000 0 21543290.007 12613234.842 5240101.466 10 0 59784 66600.00000 0 20825977.069 12172946.505 8304682.377 10 0 59784 67500.00000 0 19731192.960 11667457.494 11208012.519 10 0 59784 68400.00000 0 18270854.483 11153368.561 13893826.202 10 0 59784 69300.00000 0 16469670.136 10684991.063 16310130.442 10 0 59784 70200.00000 0 14364291.556 10311898.183 18410201.308 10 0 59784 71100.00000 0 12001980.362 10076693.480 20153474.747 10 0 59784 72000.00000 0 9438846.389 10013089.908 21506315.926 10 0 59784 72900.00000 0 6737730.512 10144379.002 22442653.889 10 0 59784 73800.00000 0 3965819.379 10482353.415 22944470.818 10 0 59784 74700.00000 0 1192090.045 11026726.988 23002137.978 10 0 59784 75600.00000 0 -1515311.170 11765076.003 22614593.063 10 0 59784 76500.00000 0 -4091648.892 12673303.824 21789356.364 10 0 59784 77400.00000 0 -6478033.062 13716609.718 20542385.784 10 0 59784 78300.00000 0 -8623608.712 14850922.031 18897773.335 10 0 59784 79200.00000 0 -10487412.246 16024736.878 16887288.340 10 0 59784 80100.00000 0 -12039818.737 17181286.725 14549775.129 10 0 59784 81000.00000 0 -13263521.292 18260949.480 11930415.554 10 0 59784 81900.00000 0 -14154002.530 19203798.448 9079869.083 10 0 59784 82800.00000 0 -14719478.786 19952187.202 6053305.713 10 0 59784 83700.00000 0 -14980319.449 20453261.411 2909349.114 10 0 59784 84600.00000 0 -14967965.515 20661292.125 -291050.624 10 0 59784 85500.00000 0 -14723392.377 20539731.853 -3485793.383 10 0 59785 0.00000 0 -14295181.201 20062905.898 -6612831.845 10 0 59785 900.00000 0 -13737279.611 19217265.863 -9611379.069 10 0 59785 1800.00000 0 -13106546.689 18002151.378 -12423092.745 10 0 59785 2700.00000 0 -12460185.379 16430024.986 -14993218.200 10 0 59785 3600.00000 0 -11853171.755 14526168.633 -17271662.933 10 0 59785 4500.00000 0 -11335790.383 12327852.211 -19213982.571 10 0 59785 5400.00000 0 -10951380.909 9883007.125 -20782257.946 10 0 59785 6300.00000 0 -10734392.267 7248458.826 -21945845.361 10 0 59785 7200.00000 0 -10708827.923 4487791.122 -22681984.614 10 0 59785 8100.00000 0 -10887149.035 1668930.682 -22976252.243 10 0 59785 9000.00000 0 -11269682.978 -1138447.859 -22822850.555 10 0 59785 9900.00000 0 -11844563.120 -3865587.969 -22224726.271 10 0 59785 10800.00000 0 -12588203.093 -6447277.210 -21193516.104 10 0 59785 11700.00000 0 -13466285.899 -8824323.508 -19749320.035 10 0 59785 12600.00000 0 -14435226.165 -10945778.139 -17920306.620 10 0 59785 13500.00000 0 -15444043.493 -12770812.815 -15742158.107 10 0 59785 14400.00000 0 -16436567.207 -14270172.751 -13257366.475 10 0 59785 15300.00000 0 -17353878.508 -15427145.685 -10514394.683 10 0 59785 16200.00000 0 -18136885.851 -16238007.491 -7566720.285 10 0 59785 17100.00000 0 -18728923.676 -16711927.369 -4471780.997 10 0 59785 18000.00000 0 -19078263.696 -16870338.582 -1289843.977 10 0 59785 18900.00000 0 -19140431.888 -16745803.542 1917177.947 10 0 59785 19800.00000 0 -18880232.821 -16380423.447 5086938.981 10 0 59785 20700.00000 0 -18273395.761 -15823861.767 8157877.282 10 0 59785 21600.00000 0 -17307773.305 -15131067.007 11070411.831 10 0 59785 22500.00000 0 -15984042.517 -14359792.360 13768095.706 10 0 59785 23400.00000 0 -14315879.722 -13568017.866 16198703.441 10 0 59785 24300.00000 0 -12329602.247 -12811384.149 18315232.061 10 0 59785 25200.00000 0 -10063292.616 -12140745.556 20076797.422 10 0 59785 26100.00000 0 -7565442.058 -11599944.929 21449409.825 10 0 59785 27000.00000 0 -4893169.778 -11223902.379 22406615.517 10 0 59785 27900.00000 0 -2110091.409 -11037096.928 22929993.304 10 0 59785 28800.00000 0 716075.734 -11052503.384 23009498.155 10 0 59785 29700.00000 0 3516072.818 -11271027.772 22643646.430 10 0 59785 30600.00000 0 6221720.815 -11681464.210 21839539.986 10 0 59785 31500.00000 0 8768496.317 -12260974.612 20612729.076 10 0 59785 32400.00000 0 11097957.263 -12976071.303 18986916.532 10 0 59785 33300.00000 0 13159919.995 -13784062.003 16993508.326 10 0 59785 34200.00000 0 14914298.928 -14634897.590 14671018.178 10 0 59785 35100.00000 0 16332533.742 -15473346.378 12064336.419 10 0 59785 36000.00000 0 17398545.616 -16241404.869 9223875.735 10 0 59785 36900.00000 0 18109182.998 -16880844.811 6204608.951 10 0 59785 37800.00000 0 18474138.390 -17335790.207 3065016.134 10 0 59785 38700.00000 0 18515339.368 -17555216.094 -134039.675 10 0 59785 39600.00000 0 18265838.888 -17495263.629 -3330486.948 10 0 59785 40500.00000 0 17768251.021 -17121273.092 -6462247.996 10 0 59785 41400.00000 0 17072797.453 -16409447.740 -9468445.822 10 0 59785 42300.00000 0 16235046.720 -15348076.600 -12290591.646 10 0 59785 43200.00000 0 15313441.465 -13938262.532 -14873729.504 10 0 59785 44100.00000 0 14366718.192 -12194122.540 -17167514.918 10 0 59785 45000.00000 0 13451328.925 -10142449.606 -19127205.726 10 0 59785 45900.00000 0 12618974.234 -7821847.975 -20714544.959 10 0 59785 46800.00000 0 11914352.679 -5281376.162 -21898517.721 10 0 59785 47700.00000 0 11373222.569 -2578752.945 -22655966.486 10 0 59785 48600.00000 0 11020858.790 221799.861 -22972052.157 10 0 59785 49500.00000 0 10870970.684 3051988.541 -22840551.288 10 0 59785 50400.00000 0 10925127.330 5842051.361 -22263983.117 10 0 59785 51300.00000 0 11172714.954 8523426.685 -21253563.583 10 0 59785 52200.00000 0 11591428.417 11031373.947 -19828986.911 10 0 59785 53100.00000 0 12148275.911 13307437.819 -18018038.925 10 0 59785 54000.00000 0 12801053.943 15301652.664 -15856049.728 10 0 59785 54900.00000 0 13500229.532 16974395.257 -13385196.656 10 0 59785 55800.00000 0 14191149.018 18297808.611 -10653671.722 10 0 59785 56700.00000 0 14816478.905 19256738.168 -7714730.515 10 0 59785 57600.00000 0 15318774.233 19849142.352 -4625642.079 10 0 59785 58500.00000 0 15643064.615 20085961.895 -1446561.429 10 0 59785 59400.00000 0 15739347.526 19990455.499 1760652.140 10 0 59785 60300.00000 0 15564882.627 19597032.007 4933646.831 10 0 59785 61200.00000 0 15086189.732 18949630.537 8010795.564 10 0 59785 62100.00000 0 14280665.952 18099718.916 10932394.297 10 0 59785 63000.00000 0 13137754.008 17103996.534 13641817.917 10 0 59785 63900.00000 0 11659612.964 16021899.617 16086611.258 10 0 59785 64800.00000 0 9861263.673 14913014.641 18219494.783 10 0 59785 65700.00000 0 7770203.262 13834508.693 19999266.423 10 0 59785 66600.00000 0 5425505.074 12838684.189 21391583.426 10 0 59785 67500.00000 0 2876441.517 11970759.548 22369610.691 10 0 59785 68400.00000 0 180686.699 11266967.399 22914524.686 10 0 59785 69300.00000 0 -2597827.334 10753048.458 23015864.683 10 0 59785 70200.00000 0 -5391313.127 10443202.546 22671725.827 10 0 59785 71100.00000 0 -8130691.248 10339539.322 21888791.161 10 0 59785 72000.00000 0 -10748210.277 10432050.766 20682202.382 10 0 59785 72900.00000 0 -13180016.853 10699106.096 19075271.725 10 0 59785 73800.00000 0 -15368571.255 11108448.392 17099039.923 10 0 59785 74700.00000 0 -17264809.952 11618651.665 14791687.793 10 0 59785 75600.00000 0 -18829966.749 12180978.052 12197811.538 10 0 59785 76500.00000 0 -20036977.710 12741558.176 9367574.247 10 0 59785 77400.00000 0 -20871411.770 13243803.986 6355748.650 10 0 59785 78300.00000 0 -21331888.251 13630953.404 3220668.271 10 0 59785 79200.00000 0 -21429963.525 13848639.988 23106.202 10 0 59785 80100.00000 0 -21189490.975 13847379.319 -3174897.440 10 0 59785 81000.00000 0 -20645480.432 13584866.653 -6311237.028 10 0 59785 81900.00000 0 -19842504.351 13027987.769 -9324948.660 10 0 59785 82800.00000 0 -18832717.195 12154456.591 -12157399.230 10 0 59785 83700.00000 0 -17673571.085 10954008.476 -14753433.728 10 0 59785 84600.00000 0 -16425323.848 9429096.540 -17062457.714 10 0 59785 85500.00000 0 -15148444.656 7595059.312 -19039432.977 99